Year,Month,Day,Hour,Minute,Value (Times are PST for temperature in C)
2008,12,20,00,00,-9.10
2008,12,20,00,01,-9.10
2008,12,20,00,02,-9.10
2008,12,20,00,03,-9.10
2008,12,20,00,04,-9.10
2008,12,20,00,05,-9.10
2008,12,20,00,06,-9.10
2008,12,20,00,07,-9.10
2008,12,20,00,08,-9.20
2008,12,20,00,09,-9.20
2008,12,20,00,10,-9.20
2008,12,20,00,11,-9.30
2008,12,20,00,12,-9.30
2008,12,20,00,13,-9.30
2008,12,20,00,14,-9.30
2008,12,20,00,15,-9.40
2008,12,20,00,16,-9.40
2008,12,20,00,17,-9.40
2008,12,20,00,18,-9.40
2008,12,20,00,19,-9.50
2008,12,20,00,20,-9.50
2008,12,20,00,21,-9.60
2008,12,20,00,22,-9.60
2008,12,20,00,23,-9.70
2008,12,20,00,24,-9.70
2008,12,20,00,25,-9.80
2008,12,20,00,26,-9.80
2008,12,20,00,27,-9.80
2008,12,20,00,28,-9.80
2008,12,20,00,29,-9.80
2008,12,20,00,30,-9.80
2008,12,20,00,31,-9.80
2008,12,20,00,32,-9.80
2008,12,20,00,33,-9.70
2008,12,20,00,34,-9.70
2008,12,20,00,35,-9.70
2008,12,20,00,36,-9.70
2008,12,20,00,37,-9.60
2008,12,20,00,38,-9.60
2008,12,20,00,39,-9.60
2008,12,20,00,40,-9.50
2008,12,20,00,41,-9.50
2008,12,20,00,42,-9.50
2008,12,20,00,43,-9.50
2008,12,20,00,44,-9.50
2008,12,20,00,45,-9.60
2008,12,20,00,46,-9.60
2008,12,20,00,47,-9.70
2008,12,20,00,48,-9.70
2008,12,20,00,49,-9.70
2008,12,20,00,50,-9.70
2008,12,20,00,51,-9.70
2008,12,20,00,52,-9.70
2008,12,20,00,53,-9.60
2008,12,20,00,54,-9.60
2008,12,20,00,55,-9.60
2008,12,20,00,56,-9.60
2008,12,20,00,57,-9.60
2008,12,20,00,58,-9.60
2008,12,20,00,59,-9.60
2008,12,20,01,00,-9.60
2008,12,20,01,01,-9.50
2008,12,20,01,02,-9.50
2008,12,20,01,03,-9.50
2008,12,20,01,04,-9.50
2008,12,20,01,05,-9.40
2008,12,20,01,06,-9.30
2008,12,20,01,07,-9.20
2008,12,20,01,08,-9.20
2008,12,20,01,09,-9.20
2008,12,20,01,10,-9.20
2008,12,20,01,11,-9.20
2008,12,20,01,12,-9.20
2008,12,20,01,13,-9.20
2008,12,20,01,14,-9.20
2008,12,20,01,15,-9.10
2008,12,20,01,16,-9.10
2008,12,20,01,17,-9.10
2008,12,20,01,18,-9.10
2008,12,20,01,19,-9.10
2008,12,20,01,20,-9.10
2008,12,20,01,21,-9.10
2008,12,20,01,22,-9.10
2008,12,20,01,23,-9.10
2008,12,20,01,24,-9.20
2008,12,20,01,25,-9.20
2008,12,20,01,26,-9.20
2008,12,20,01,27,-9.30
2008,12,20,01,28,-9.30
2008,12,20,01,29,-9.40
2008,12,20,01,30,-9.50
2008,12,20,01,31,-9.50
2008,12,20,01,32,-9.50
2008,12,20,01,33,-9.50
2008,12,20,01,34,-9.50
2008,12,20,01,35,-9.60
2008,12,20,01,36,-9.60
2008,12,20,01,37,-9.60
2008,12,20,01,38,-9.50
2008,12,20,01,39,-9.30
2008,12,20,01,40,-9.30
2008,12,20,01,41,-9.30
2008,12,20,01,42,-9.20
2008,12,20,01,43,-9.20
2008,12,20,01,44,-9.20
2008,12,20,01,45,-9.20
2008,12,20,01,46,-9.30
2008,12,20,01,47,-9.30
2008,12,20,01,48,-9.30
2008,12,20,01,49,-9.30
2008,12,20,01,50,-9.30
2008,12,20,01,51,-9.30
2008,12,20,01,52,-9.40
2008,12,20,01,53,-9.30
2008,12,20,01,54,-9.40
2008,12,20,01,55,-9.50
2008,12,20,01,56,-9.50
2008,12,20,01,57,-9.60
2008,12,20,01,58,-9.60
2008,12,20,01,59,-9.60
2008,12,20,02,00,-9.60
2008,12,20,02,01,-9.60
2008,12,20,02,02,-9.50
2008,12,20,02,03,-9.50
2008,12,20,02,04,-9.50
2008,12,20,02,05,-9.50
2008,12,20,02,06,-9.50
2008,12,20,02,07,-9.50
2008,12,20,02,08,-9.40
2008,12,20,02,09,-9.30
2008,12,20,02,10,-9.30
2008,12,20,02,11,-9.20
2008,12,20,02,12,-9.20
2008,12,20,02,13,-9.20
2008,12,20,02,14,-9.20
2008,12,20,02,15,-9.20
2008,12,20,02,16,-9.30
2008,12,20,02,17,-9.30
2008,12,20,02,18,-9.30
2008,12,20,02,19,-9.30
2008,12,20,02,20,-9.30
2008,12,20,02,21,-9.30
2008,12,20,02,22,-9.30
2008,12,20,02,23,-9.30
2008,12,20,02,24,-9.30
2008,12,20,02,25,-9.20
2008,12,20,02,26,-9.20
2008,12,20,02,27,-9.20
2008,12,20,02,28,-9.20
2008,12,20,02,29,-9.30
2008,12,20,02,30,-9.30
2008,12,20,02,31,-9.40
2008,12,20,02,32,-9.50
2008,12,20,02,33,-9.60
2008,12,20,02,34,-9.60
2008,12,20,02,35,-9.60
2008,12,20,02,36,-9.60
2008,12,20,02,37,-9.70
2008,12,20,02,38,-9.80
2008,12,20,02,39,-9.80
2008,12,20,02,40,-9.90
2008,12,20,02,41,-9.90
2008,12,20,02,42,-9.90
2008,12,20,02,43,-9.80
2008,12,20,02,44,-9.80
2008,12,20,02,45,-9.80
2008,12,20,02,46,-9.80
2008,12,20,02,47,-9.80
2008,12,20,02,48,-9.80
2008,12,20,02,49,-9.90
2008,12,20,02,50,-9.90
2008,12,20,02,51,-9.90
2008,12,20,02,52,-9.90
2008,12,20,02,53,-9.90
2008,12,20,02,54,-9.90
2008,12,20,02,55,-9.80
2008,12,20,02,56,-9.80
2008,12,20,02,57,-9.60
2008,12,20,02,58,-9.60
2008,12,20,02,59,-9.50
2008,12,20,03,00,-9.40
2008,12,20,03,01,-9.40
2008,12,20,03,02,-9.40
2008,12,20,03,03,-9.40
2008,12,20,03,04,-9.40
2008,12,20,03,05,-9.40
2008,12,20,03,06,-9.40
2008,12,20,03,07,-9.50
2008,12,20,03,08,-9.50
2008,12,20,03,09,-9.60
2008,12,20,03,10,-9.60
2008,12,20,03,11,-9.70
2008,12,20,03,12,-9.80
2008,12,20,03,13,-9.90
2008,12,20,03,14,-10.00
2008,12,20,03,15,-10.10
2008,12,20,03,16,-10.20
2008,12,20,03,17,-10.10
2008,12,20,03,18,-10.20
2008,12,20,03,19,-10.20
2008,12,20,03,20,-10.20
2008,12,20,03,21,-10.20
2008,12,20,03,22,-10.30
2008,12,20,03,23,-10.30
2008,12,20,03,24,-10.30
2008,12,20,03,25,-10.40
2008,12,20,03,26,-10.50
2008,12,20,03,27,-10.50
2008,12,20,03,28,-10.60
2008,12,20,03,29,-10.50
2008,12,20,03,30,-10.50
2008,12,20,03,31,-10.60
2008,12,20,03,32,-10.60
2008,12,20,03,33,-10.60
2008,12,20,03,34,-10.70
2008,12,20,03,35,-10.80
2008,12,20,03,36,-10.80
2008,12,20,03,37,-10.90
2008,12,20,03,38,-10.90
2008,12,20,03,39,-11.00
2008,12,20,03,40,-11.00
2008,12,20,03,41,-11.00
2008,12,20,03,42,-11.10
2008,12,20,03,43,-11.10
2008,12,20,03,44,-11.10
2008,12,20,03,45,-11.10
2008,12,20,03,46,-11.10
2008,12,20,03,47,-11.10
2008,12,20,03,48,-11.10
2008,12,20,03,49,-11.00
2008,12,20,03,50,-11.00
2008,12,20,03,51,-10.90
2008,12,20,03,52,-10.90
2008,12,20,03,53,-10.90
2008,12,20,03,54,-10.90
2008,12,20,03,55,-10.90
2008,12,20,03,56,-10.90
2008,12,20,03,57,-10.80
2008,12,20,03,58,-10.80
2008,12,20,03,59,-10.70
2008,12,20,04,00,-10.70
2008,12,20,04,01,-10.70
2008,12,20,04,02,-10.70
2008,12,20,04,03,-10.70
2008,12,20,04,04,-10.60
2008,12,20,04,05,-10.60
2008,12,20,04,06,-10.50
2008,12,20,04,07,-10.40
2008,12,20,04,08,-10.40
2008,12,20,04,09,-10.40
2008,12,20,04,10,-10.40
2008,12,20,04,11,-10.40
2008,12,20,04,13,-10.30
2008,12,20,04,15,-10.30
2008,12,20,04,16,-10.20
2008,12,20,04,17,-10.20
2008,12,20,04,18,-10.20
2008,12,20,04,19,-10.20
2008,12,20,04,20,-10.20
2008,12,20,04,21,-10.20
2008,12,20,04,22,-10.20
2008,12,20,04,23,-10.20
2008,12,20,04,24,-10.20
2008,12,20,04,25,-10.30
2008,12,20,04,26,-10.30
2008,12,20,04,27,-10.30
2008,12,20,04,28,-10.20
2008,12,20,04,29,-10.20
2008,12,20,04,30,-10.20
2008,12,20,04,31,-10.20
2008,12,20,04,32,-10.30
2008,12,20,04,33,-10.30
2008,12,20,04,34,-10.40
2008,12,20,04,35,-10.40
2008,12,20,04,36,-10.40
2008,12,20,04,37,-10.50
2008,12,20,04,38,-10.50
2008,12,20,04,39,-10.60
2008,12,20,04,40,-10.70
2008,12,20,04,41,-10.70
2008,12,20,04,42,-10.80
2008,12,20,04,43,-10.80
2008,12,20,04,44,-10.90
2008,12,20,04,45,-10.90
2008,12,20,04,46,-10.90
2008,12,20,04,47,-11.00
2008,12,20,04,48,-11.10
2008,12,20,04,49,-11.10
2008,12,20,04,50,-11.20
2008,12,20,04,51,-11.20
2008,12,20,04,52,-11.20
2008,12,20,04,53,-11.30
2008,12,20,04,54,-11.30
2008,12,20,04,55,-11.30
2008,12,20,04,56,-11.30
2008,12,20,04,57,-11.30
2008,12,20,04,58,-11.40
2008,12,20,04,59,-11.40
2008,12,20,05,00,-11.40
2008,12,20,05,01,-11.50
2008,12,20,05,02,-11.50
2008,12,20,05,03,-11.50
2008,12,20,05,04,-11.50
2008,12,20,05,05,-11.40
2008,12,20,05,06,-11.40
2008,12,20,05,07,-11.40
2008,12,20,05,08,-11.40
2008,12,20,05,09,-11.40
2008,12,20,05,10,-11.40
2008,12,20,05,11,-11.30
2008,12,20,05,12,-11.30
2008,12,20,05,13,-11.30
2008,12,20,05,14,-11.30
2008,12,20,05,15,-11.20
2008,12,20,05,16,-11.20
2008,12,20,05,17,-11.20
2008,12,20,05,18,-11.20
2008,12,20,05,19,-11.20
2008,12,20,05,20,-11.20
2008,12,20,05,21,-11.20
2008,12,20,05,22,-11.20
2008,12,20,05,23,-11.10
2008,12,20,05,24,-11.10
2008,12,20,05,25,-11.10
2008,12,20,05,26,-11.20
2008,12,20,05,27,-11.20
2008,12,20,05,28,-11.20
2008,12,20,05,29,-11.20
2008,12,20,05,30,-11.30
2008,12,20,05,31,-11.30
2008,12,20,05,32,-11.30
2008,12,20,05,33,-11.40
2008,12,20,05,34,-11.50
2008,12,20,05,35,-11.60
2008,12,20,05,36,-11.70
2008,12,20,05,37,-11.70
2008,12,20,05,38,-11.80
2008,12,20,05,39,-11.80
2008,12,20,05,40,-11.80
2008,12,20,05,41,-11.90
2008,12,20,05,42,-11.90
2008,12,20,05,43,-11.90
2008,12,20,05,44,-11.90
2008,12,20,05,45,-12.00
2008,12,20,05,46,-12.00
2008,12,20,05,47,-12.10
2008,12,20,05,48,-12.10
2008,12,20,05,49,-12.20
2008,12,20,05,50,-12.20
2008,12,20,05,51,-12.20
2008,12,20,05,52,-12.20
2008,12,20,05,53,-12.20
2008,12,20,05,54,-12.30
2008,12,20,05,55,-12.30
2008,12,20,05,56,-12.30
2008,12,20,05,57,-12.30
2008,12,20,05,58,-12.30
2008,12,20,05,59,-12.30
2008,12,20,06,00,-12.30
2008,12,20,06,01,-12.30
2008,12,20,06,02,-12.30
2008,12,20,06,03,-12.30
2008,12,20,06,04,-12.30
2008,12,20,06,05,-12.30
2008,12,20,06,06,-12.30
2008,12,20,06,07,-12.30
2008,12,20,06,08,-12.30
2008,12,20,06,09,-12.30
2008,12,20,06,10,-12.30
2008,12,20,06,11,-12.30
2008,12,20,06,12,-12.30
2008,12,20,06,13,-12.30
2008,12,20,06,14,-12.30
2008,12,20,06,15,-12.30
2008,12,20,06,16,-12.30
2008,12,20,06,17,-12.30
2008,12,20,06,18,-12.30
2008,12,20,06,19,-12.30
2008,12,20,06,20,-12.30
2008,12,20,06,21,-12.20
2008,12,20,06,22,-12.00
2008,12,20,06,23,-11.90
2008,12,20,06,24,-11.80
2008,12,20,06,25,-11.80
2008,12,20,06,26,-11.80
2008,12,20,06,27,-11.70
2008,12,20,06,28,-11.60
2008,12,20,06,29,-11.50
2008,12,20,06,30,-11.50
2008,12,20,06,31,-11.40
2008,12,20,06,32,-11.30
2008,12,20,06,33,-11.30
2008,12,20,06,34,-11.20
2008,12,20,06,35,-11.20
2008,12,20,06,36,-11.20
2008,12,20,06,37,-11.20
2008,12,20,06,38,-11.10
2008,12,20,06,39,-10.90
2008,12,20,06,40,-10.80
2008,12,20,06,41,-10.70
2008,12,20,06,42,-10.70
2008,12,20,06,43,-10.60
2008,12,20,06,44,-10.60
2008,12,20,06,45,-10.50
2008,12,20,06,46,-10.50
2008,12,20,06,47,-10.50
2008,12,20,06,48,-10.50
2008,12,20,06,49,-10.60
2008,12,20,06,50,-10.50
2008,12,20,06,51,-10.40
2008,12,20,06,52,-10.40
2008,12,20,06,53,-10.40
2008,12,20,06,54,-10.50
2008,12,20,06,55,-10.50
2008,12,20,06,56,-10.60
2008,12,20,06,57,-10.60
2008,12,20,06,58,-10.70
2008,12,20,06,59,-10.70
2008,12,20,07,00,-10.70
2008,12,20,07,01,-10.70
2008,12,20,07,02,-10.80
2008,12,20,07,03,-10.70
2008,12,20,07,04,-10.70
2008,12,20,07,05,-10.70
2008,12,20,07,06,-10.70
2008,12,20,07,07,-10.60
2008,12,20,07,08,-10.60
2008,12,20,07,09,-10.50
2008,12,20,07,10,-10.50
2008,12,20,07,11,-10.50
2008,12,20,07,12,-10.40
2008,12,20,07,13,-10.40
2008,12,20,07,14,-10.30
2008,12,20,07,15,-10.30
2008,12,20,07,16,-10.30
2008,12,20,07,17,-10.20
2008,12,20,07,18,-10.20
2008,12,20,07,19,-10.20
2008,12,20,07,20,-10.10
2008,12,20,07,21,-10.10
2008,12,20,07,22,-10.00
2008,12,20,07,23,-9.90
2008,12,20,07,24,-9.80
2008,12,20,07,25,-9.70
2008,12,20,07,26,-9.70
2008,12,20,07,27,-9.60
2008,12,20,07,28,-9.60
2008,12,20,07,29,-9.50
2008,12,20,07,30,-9.40
2008,12,20,07,31,-9.40
2008,12,20,07,32,-9.30
2008,12,20,07,33,-9.30
2008,12,20,07,34,-9.20
2008,12,20,07,35,-9.20
2008,12,20,07,36,-9.20
2008,12,20,07,37,-9.20
2008,12,20,07,38,-9.20
2008,12,20,07,39,-9.20
2008,12,20,07,40,-9.10
2008,12,20,07,41,-9.10
2008,12,20,07,42,-9.10
2008,12,20,07,43,-9.10
2008,12,20,07,44,-9.10
2008,12,20,07,45,-9.10
2008,12,20,07,46,-9.10
2008,12,20,07,47,-9.10
2008,12,20,07,48,-9.00
2008,12,20,07,49,-9.00
2008,12,20,07,50,-8.90
2008,12,20,07,51,-8.80
2008,12,20,07,52,-8.70
2008,12,20,07,53,-8.70
2008,12,20,07,54,-8.70
2008,12,20,07,55,-8.60
2008,12,20,07,56,-8.50
2008,12,20,07,57,-8.50
2008,12,20,07,58,-8.40
2008,12,20,07,59,-8.40
2008,12,20,08,00,-8.40
2008,12,20,08,01,-8.40
2008,12,20,08,02,-8.40
2008,12,20,08,03,-8.40
2008,12,20,08,04,-8.40
2008,12,20,08,05,-8.40
2008,12,20,08,06,-8.40
2008,12,20,08,07,-8.40
2008,12,20,08,08,-8.30
2008,12,20,08,09,-8.30
2008,12,20,08,10,-8.30
2008,12,20,08,11,-8.20
2008,12,20,08,12,-8.20
2008,12,20,08,13,-8.20
2008,12,20,08,14,-8.20
2008,12,20,08,15,-8.20
2008,12,20,08,16,-8.20
2008,12,20,08,17,-8.20
2008,12,20,08,18,-8.20
2008,12,20,08,19,-8.20
2008,12,20,08,20,-8.20
2008,12,20,08,21,-8.20
2008,12,20,08,22,-8.20
2008,12,20,08,23,-8.20
2008,12,20,08,24,-8.20
2008,12,20,08,25,-8.30
2008,12,20,08,26,-8.30
2008,12,20,08,27,-8.30
2008,12,20,08,28,-8.30
2008,12,20,08,29,-8.20
2008,12,20,08,30,-8.20
2008,12,20,08,31,-8.20
2008,12,20,08,32,-8.20
2008,12,20,08,33,-8.20
2008,12,20,08,34,-8.20
2008,12,20,08,35,-8.20
2008,12,20,08,36,-8.20
2008,12,20,08,37,-8.20
2008,12,20,08,38,-8.20
2008,12,20,08,39,-8.20
2008,12,20,08,40,-8.20
2008,12,20,08,41,-8.20
2008,12,20,08,42,-8.20
2008,12,20,08,43,-8.20
2008,12,20,08,44,-8.20
2008,12,20,08,45,-8.20
2008,12,20,08,46,-8.10
2008,12,20,08,47,-8.00
2008,12,20,08,48,-7.90
2008,12,20,08,49,-7.90
2008,12,20,08,50,-7.90
2008,12,20,08,51,-7.90
2008,12,20,08,52,-7.90
2008,12,20,08,53,-7.80
2008,12,20,08,54,-7.80
2008,12,20,08,55,-7.80
2008,12,20,08,56,-7.80
2008,12,20,08,57,-7.80
2008,12,20,08,58,-7.80
2008,12,20,08,59,-7.80
2008,12,20,09,00,-7.80
2008,12,20,09,01,-7.80
2008,12,20,09,02,-7.70
2008,12,20,09,03,-7.70
2008,12,20,09,04,-7.70
2008,12,20,09,05,-7.70
2008,12,20,09,06,-7.60
2008,12,20,09,07,-7.60
2008,12,20,09,08,-7.60
2008,12,20,09,09,-7.60
2008,12,20,09,10,-7.60
2008,12,20,09,11,-7.60
2008,12,20,09,12,-7.60
2008,12,20,09,13,-7.60
2008,12,20,09,14,-7.60
2008,12,20,09,15,-7.60
2008,12,20,09,16,-7.60
2008,12,20,09,17,-7.60
2008,12,20,09,18,-7.60
2008,12,20,09,19,-7.60
2008,12,20,09,20,-7.60
2008,12,20,09,21,-7.60
2008,12,20,09,22,-7.60
2008,12,20,09,23,-7.60
2008,12,20,09,24,-7.60
2008,12,20,09,25,-7.60
2008,12,20,09,26,-7.60
2008,12,20,09,27,-7.50
2008,12,20,09,28,-7.50
2008,12,20,09,29,-7.50
2008,12,20,09,30,-7.40
2008,12,20,09,31,-7.40
2008,12,20,09,32,-7.40
2008,12,20,09,33,-7.40
2008,12,20,09,34,-7.40
2008,12,20,09,35,-7.40
2008,12,20,09,36,-7.30
2008,12,20,09,37,-7.30
2008,12,20,09,38,-7.30
2008,12,20,09,39,-7.30
2008,12,20,09,40,-7.30
2008,12,20,09,41,-7.30
2008,12,20,09,42,-7.30
2008,12,20,09,43,-7.30
2008,12,20,09,44,-7.30
2008,12,20,09,45,-7.30
2008,12,20,09,46,-7.30
2008,12,20,09,47,-7.30
2008,12,20,09,48,-7.30
2008,12,20,09,49,-7.30
2008,12,20,09,50,-7.30
2008,12,20,09,51,-7.30
2008,12,20,09,52,-7.30
2008,12,20,09,53,-7.20
2008,12,20,09,54,-7.20
2008,12,20,09,55,-7.20
2008,12,20,09,56,-7.20
2008,12,20,09,57,-7.20
2008,12,20,09,58,-7.20
2008,12,20,09,59,-7.20
2008,12,20,10,00,-7.10
2008,12,20,10,01,-7.10
2008,12,20,10,02,-7.10
2008,12,20,10,03,-7.10
2008,12,20,10,04,-7.10
2008,12,20,10,05,-7.10
2008,12,20,10,06,-7.00
2008,12,20,10,07,-7.00
2008,12,20,10,08,-7.00
2008,12,20,10,09,-6.90
2008,12,20,10,10,-6.90
2008,12,20,10,11,-6.90
2008,12,20,10,12,-6.90
2008,12,20,10,13,-6.90
2008,12,20,10,14,-6.90
2008,12,20,10,15,-6.80
2008,12,20,10,16,-6.80
2008,12,20,10,17,-6.80
2008,12,20,10,18,-6.80
2008,12,20,10,19,-6.80
2008,12,20,10,20,-6.80
2008,12,20,10,21,-6.80
2008,12,20,10,22,-6.80
2008,12,20,10,23,-6.80
2008,12,20,10,24,-6.80
2008,12,20,10,25,-6.80
2008,12,20,10,26,-6.80
2008,12,20,10,27,-6.80
2008,12,20,10,28,-6.80
2008,12,20,10,29,-6.80
2008,12,20,10,30,-6.80
2008,12,20,10,31,-6.80
2008,12,20,10,32,-6.80
2008,12,20,10,33,-6.80
2008,12,20,10,34,-6.70
2008,12,20,10,35,-6.70
2008,12,20,10,36,-6.70
2008,12,20,10,37,-6.70
2008,12,20,10,38,-6.70
2008,12,20,10,39,-6.70
2008,12,20,10,40,-6.70
2008,12,20,10,41,-6.60
2008,12,20,10,42,-6.60
2008,12,20,10,43,-6.60
2008,12,20,10,44,-6.60
2008,12,20,10,45,-6.60
2008,12,20,10,46,-6.60
2008,12,20,10,47,-6.60
2008,12,20,10,48,-6.60
2008,12,20,10,49,-6.60
2008,12,20,10,50,-6.60
2008,12,20,10,51,-6.50
2008,12,20,10,52,-6.50
2008,12,20,10,53,-6.50
2008,12,20,10,54,-6.50
2008,12,20,10,55,-6.50
2008,12,20,10,56,-6.40
2008,12,20,10,57,-6.40
2008,12,20,10,58,-6.40
2008,12,20,10,59,-6.40
2008,12,20,11,00,-6.40
2008,12,20,11,01,-6.40
2008,12,20,11,02,-6.40
2008,12,20,11,03,-6.40
2008,12,20,11,04,-6.40
2008,12,20,11,05,-6.30
2008,12,20,11,06,-6.30
2008,12,20,11,07,-6.30
2008,12,20,11,08,-6.30
2008,12,20,11,09,-6.30
2008,12,20,11,10,-6.30
2008,12,20,11,11,-6.30
2008,12,20,11,12,-6.30
2008,12,20,11,13,-6.30
2008,12,20,11,14,-6.20
2008,12,20,11,15,-6.20
2008,12,20,11,16,-6.20
2008,12,20,11,17,-6.20
2008,12,20,11,18,-6.20
2008,12,20,11,19,-6.20
2008,12,20,11,20,-6.20
2008,12,20,11,21,-6.10
2008,12,20,11,22,-6.10
2008,12,20,11,23,-6.10
2008,12,20,11,24,-6.10
2008,12,20,11,25,-6.10
2008,12,20,11,26,-6.10
2008,12,20,11,27,-6.10
2008,12,20,11,28,-6.10
2008,12,20,11,29,-6.10
2008,12,20,11,30,-6.10
2008,12,20,11,31,-6.10
2008,12,20,11,32,-6.10
2008,12,20,11,33,-6.10
2008,12,20,11,34,-6.00
2008,12,20,11,35,-6.10
2008,12,20,11,36,-6.00
2008,12,20,11,37,-6.00
2008,12,20,11,38,-6.00
2008,12,20,11,39,-6.00
2008,12,20,11,40,-6.00
2008,12,20,11,41,-6.00
2008,12,20,11,42,-6.00
2008,12,20,11,43,-5.90
2008,12,20,11,44,-5.90
2008,12,20,11,45,-6.00
2008,12,20,11,46,-5.90
2008,12,20,11,47,-5.90
2008,12,20,11,48,-5.90
2008,12,20,11,49,-5.90
2008,12,20,11,50,-5.90
2008,12,20,11,51,-5.90
2008,12,20,11,52,-5.90
2008,12,20,11,53,-5.90
2008,12,20,11,54,-5.90
2008,12,20,11,55,-5.90
2008,12,20,11,56,-5.90
2008,12,20,11,57,-5.90
2008,12,20,11,58,-5.90
2008,12,20,11,59,-5.90
2008,12,20,12,00,-5.90
2008,12,20,12,01,-5.90
2008,12,20,12,02,-5.90
2008,12,20,12,03,-5.90
2008,12,20,12,04,-5.90
2008,12,20,12,05,-5.90
2008,12,20,12,06,-5.90
2008,12,20,12,07,-5.90
2008,12,20,12,08,-5.90
2008,12,20,12,09,-5.90
2008,12,20,12,10,-5.90
2008,12,20,12,11,-5.80
2008,12,20,12,12,-5.80
2008,12,20,12,13,-5.90
2008,12,20,12,14,-5.80
2008,12,20,12,15,-5.80
2008,12,20,12,16,-5.80
2008,12,20,12,17,-5.80
2008,12,20,12,18,-5.80
2008,12,20,12,19,-5.80
2008,12,20,12,20,-5.80
2008,12,20,12,21,-5.80
2008,12,20,12,22,-5.80
2008,12,20,12,23,-5.80
2008,12,20,12,24,-5.70
2008,12,20,12,25,-5.70
2008,12,20,12,26,-5.70
2008,12,20,12,27,-5.70
2008,12,20,12,28,-5.70
2008,12,20,12,29,-5.70
2008,12,20,12,30,-5.70
2008,12,20,12,31,-5.70
2008,12,20,12,32,-5.70
2008,12,20,12,33,-5.70
2008,12,20,12,34,-5.70
2008,12,20,12,35,-5.70
2008,12,20,12,36,-5.70
2008,12,20,12,37,-5.60
2008,12,20,12,38,-5.60
2008,12,20,12,39,-5.60
2008,12,20,12,40,-5.60
2008,12,20,12,41,-5.60
2008,12,20,12,42,-5.60
2008,12,20,12,43,-5.60
2008,12,20,12,44,-5.60
2008,12,20,12,45,-5.60
2008,12,20,12,46,-5.60
2008,12,20,12,47,-5.60
2008,12,20,12,48,-5.60
2008,12,20,12,49,-5.60
2008,12,20,12,50,-5.60
2008,12,20,12,51,-5.50
2008,12,20,12,52,-5.50
2008,12,20,12,53,-5.50
2008,12,20,12,54,-5.60
2008,12,20,12,55,-5.60
2008,12,20,12,56,-5.60
2008,12,20,12,57,-5.60
2008,12,20,12,58,-5.50
2008,12,20,12,59,-5.50
2008,12,20,13,00,-5.60
2008,12,20,13,01,-5.50
2008,12,20,13,02,-5.50
2008,12,20,13,03,-5.50
2008,12,20,13,04,-5.50
2008,12,20,13,05,-5.50
2008,12,20,13,06,-5.50
2008,12,20,13,07,-5.50
2008,12,20,13,08,-5.50
2008,12,20,13,09,-5.50
2008,12,20,13,10,-5.50
2008,12,20,13,11,-5.50
2008,12,20,13,12,-5.50
2008,12,20,13,13,-5.50
2008,12,20,13,14,-5.50
2008,12,20,13,15,-5.50
2008,12,20,13,16,-5.40
2008,12,20,13,17,-5.40
2008,12,20,13,18,-5.40
2008,12,20,13,19,-5.40
2008,12,20,13,20,-5.40
2008,12,20,13,21,-5.40
2008,12,20,13,22,-5.40
2008,12,20,13,23,-5.40
2008,12,20,13,24,-5.40
2008,12,20,13,25,-5.40
2008,12,20,13,26,-5.40
2008,12,20,13,27,-5.40
2008,12,20,13,28,-5.40
2008,12,20,13,29,-5.40
2008,12,20,13,30,-5.40
2008,12,20,13,31,-5.40
2008,12,20,13,32,-5.40
2008,12,20,13,33,-5.40
2008,12,20,13,34,-5.40
2008,12,20,13,35,-5.40
2008,12,20,13,36,-5.40
2008,12,20,13,37,-5.40
2008,12,20,13,38,-5.30
2008,12,20,13,39,-5.30
2008,12,20,13,40,-5.30
2008,12,20,13,41,-5.30
2008,12,20,13,42,-5.30
2008,12,20,13,43,-5.30
2008,12,20,13,44,-5.30
2008,12,20,13,45,-5.30
2008,12,20,13,46,-5.30
2008,12,20,13,47,-5.30
2008,12,20,13,48,-5.30
2008,12,20,13,49,-5.30
2008,12,20,13,50,-5.30
2008,12,20,13,51,-5.30
2008,12,20,13,52,-5.30
2008,12,20,13,53,-5.30
2008,12,20,13,54,-5.30
2008,12,20,13,55,-5.30
2008,12,20,13,56,-5.30
2008,12,20,13,57,-5.30
2008,12,20,13,58,-5.30
2008,12,20,13,59,-5.30
2008,12,20,14,00,-5.30
2008,12,20,14,01,-5.30
2008,12,20,14,02,-5.30
2008,12,20,14,03,-5.30
2008,12,20,14,04,-5.30
2008,12,20,14,05,-5.30
2008,12,20,14,06,-5.30
2008,12,20,14,07,-5.30
2008,12,20,14,08,-5.30
2008,12,20,14,09,-5.30
2008,12,20,14,10,-5.30
2008,12,20,14,11,-5.30
2008,12,20,14,12,-5.30
2008,12,20,14,13,-5.30
2008,12,20,14,14,-5.30
2008,12,20,14,15,-5.30
2008,12,20,14,16,-5.30
2008,12,20,14,17,-5.30
2008,12,20,14,18,-5.30
2008,12,20,14,19,-5.30
2008,12,20,14,20,-5.30
2008,12,20,14,21,-5.30
2008,12,20,14,22,-5.30
2008,12,20,14,23,-5.30
2008,12,20,14,24,-5.30
2008,12,20,14,25,-5.30
2008,12,20,14,26,-5.30
2008,12,20,14,27,-5.30
2008,12,20,14,28,-5.30
2008,12,20,14,29,-5.20
2008,12,20,14,30,-5.20
2008,12,20,14,31,-5.20
2008,12,20,14,32,-5.20
2008,12,20,14,33,-5.20
2008,12,20,14,34,-5.30
2008,12,20,14,35,-5.30
2008,12,20,14,36,-5.30
2008,12,20,14,37,-5.30
2008,12,20,14,38,-5.30
2008,12,20,14,39,-5.30
2008,12,20,14,40,-5.30
2008,12,20,14,41,-5.30
2008,12,20,14,42,-5.30
2008,12,20,14,43,-5.30
2008,12,20,14,44,-5.30
2008,12,20,14,45,-5.30
2008,12,20,14,46,-5.30
2008,12,20,14,47,-5.30
2008,12,20,14,48,-5.30
2008,12,20,14,49,-5.30
2008,12,20,14,50,-5.20
2008,12,20,14,51,-5.20
2008,12,20,14,52,-5.20
2008,12,20,14,53,-5.20
2008,12,20,14,54,-5.20
2008,12,20,14,55,-5.20
2008,12,20,14,56,-5.20
2008,12,20,14,57,-5.20
2008,12,20,14,58,-5.20
2008,12,20,14,59,-5.20
2008,12,20,15,00,-5.20
2008,12,20,15,01,-5.20
2008,12,20,15,02,-5.20
2008,12,20,15,03,-5.20
2008,12,20,15,04,-5.20
2008,12,20,15,05,-5.20
2008,12,20,15,06,-5.20
2008,12,20,15,07,-5.20
2008,12,20,15,08,-5.20
2008,12,20,15,09,-5.20
2008,12,20,15,10,-5.20
2008,12,20,15,11,-5.20
2008,12,20,15,12,-5.20
2008,12,20,15,13,-5.20
2008,12,20,15,14,-5.20
2008,12,20,15,15,-5.20
2008,12,20,15,16,-5.20
2008,12,20,15,17,-5.20
2008,12,20,15,18,-5.20
2008,12,20,15,19,-5.20
2008,12,20,15,20,-5.20
2008,12,20,15,21,-5.20
2008,12,20,15,22,-5.20
2008,12,20,15,23,-5.20
2008,12,20,15,24,-5.20
2008,12,20,15,25,-5.20
2008,12,20,15,26,-5.20
2008,12,20,15,27,-5.20
2008,12,20,15,28,-5.20
2008,12,20,15,29,-5.20
2008,12,20,15,30,-5.20
2008,12,20,15,31,-5.20
2008,12,20,15,32,-5.20
2008,12,20,15,33,-5.20
2008,12,20,15,34,-5.20
2008,12,20,15,35,-5.20
2008,12,20,15,36,-5.20
2008,12,20,15,37,-5.20
2008,12,20,15,38,-5.20
2008,12,20,15,39,-5.20
2008,12,20,15,40,-5.20
2008,12,20,15,41,-5.20
2008,12,20,15,42,-5.20
2008,12,20,15,43,-5.20
2008,12,20,15,44,-5.20
2008,12,20,15,45,-5.20
2008,12,20,15,46,-5.20
2008,12,20,15,47,-5.20
2008,12,20,15,48,-5.20
2008,12,20,15,49,-5.20
2008,12,20,15,50,-5.20
2008,12,20,15,51,-5.20
2008,12,20,15,52,-5.10
2008,12,20,15,53,-5.10
2008,12,20,15,54,-5.10
2008,12,20,15,55,-5.10
2008,12,20,15,56,-5.10
2008,12,20,15,57,-5.10
2008,12,20,15,58,-5.10
2008,12,20,15,59,-5.10
2008,12,20,16,00,-5.10
2008,12,20,16,01,-5.10
2008,12,20,16,02,-5.10
2008,12,20,16,03,-5.10
2008,12,20,16,04,-5.10
2008,12,20,16,05,-5.10
2008,12,20,16,06,-5.10
2008,12,20,16,07,-5.10
2008,12,20,16,08,-5.10
2008,12,20,16,09,-5.10
2008,12,20,16,10,-5.10
2008,12,20,16,11,-5.10
2008,12,20,16,12,-5.10
2008,12,20,16,13,-5.10
2008,12,20,16,14,-5.10
2008,12,20,16,15,-5.10
2008,12,20,16,16,-5.10
2008,12,20,16,17,-5.10
2008,12,20,16,18,-5.10
2008,12,20,16,19,-5.10
2008,12,20,16,20,-5.10
2008,12,20,16,21,-5.10
2008,12,20,16,22,-5.10
2008,12,20,16,23,-5.10
2008,12,20,16,24,-5.10
2008,12,20,16,25,-5.10
2008,12,20,16,26,-5.10
2008,12,20,16,27,-5.10
2008,12,20,16,28,-5.10
2008,12,20,16,29,-5.10
2008,12,20,16,30,-5.10
2008,12,20,16,31,-5.10
2008,12,20,16,32,-5.10
2008,12,20,16,33,-5.10
2008,12,20,16,34,-5.10
2008,12,20,16,35,-5.10
2008,12,20,16,36,-5.10
2008,12,20,16,37,-5.10
2008,12,20,16,38,-5.10
2008,12,20,16,39,-5.10
2008,12,20,16,40,-5.10
2008,12,20,16,41,-5.10
2008,12,20,16,42,-5.10
2008,12,20,16,43,-5.10
2008,12,20,16,44,-5.10
2008,12,20,16,45,-5.10
2008,12,20,16,46,-5.20
2008,12,20,16,47,-5.20
2008,12,20,16,48,-5.20
2008,12,20,16,49,-5.20
2008,12,20,16,50,-5.20
2008,12,20,16,51,-5.20
2008,12,20,16,52,-5.20
2008,12,20,16,53,-5.20
2008,12,20,16,54,-5.20
2008,12,20,16,55,-5.20
2008,12,20,16,56,-5.20
2008,12,20,16,57,-5.20
2008,12,20,16,58,-5.20
2008,12,20,16,59,-5.20
2008,12,20,17,00,-5.10
2008,12,20,17,01,-5.20
2008,12,20,17,02,-5.20
2008,12,20,17,03,-5.10
2008,12,20,17,04,-5.10
2008,12,20,17,05,-5.10
2008,12,20,17,06,-5.10
2008,12,20,17,07,-5.10
2008,12,20,17,08,-5.10
2008,12,20,17,09,-5.10
2008,12,20,17,10,-5.10